Latest Weather Observations for Amberley

IDQ60901

Issued at 5:51 am EST Thursday 11 February 2016 (issued every 10 minutes, with the page automatically refreshed every 10 minutes)

About weather observations | Map of Brisbane area stations | Latest observations for Brisbane area | Other Formats
Station Details ID: 040004 Name: AMBERLEY AMO Lat: -27.63 Lon: 152.71 Height: 24.2 m
Data from the previous 72 hours. | See also: Recent months at Amberley
Date/Time
EST
Tmp

°C
App
Tmp
°C
Dew
Point
°C
Rel
Hum
%
Delta-T

°C
Wind Press
QNH
hPa
Press
MSL
hPa
Rain
since
9 am
mm
Dir
 
Spd
km/h
Gust
km/h
Spd
kts
Gust
kts
11/05:30am 17.7 20.1 17.0 96 0.4 CALM 0 0 0 0 1012.3 1012.2 0.0
11/05:00am 17.5 19.9 17.0 97 0.3 CALM 0 0 0 0 1012.2 1012.1 0.0
11/04:30am 17.9 20.4 17.2 96 0.4 CALM 0 0 0 0 1011.9 1011.8 0.0
11/04:00am 17.9 20.4 17.2 96 0.4 CALM 0 0 0 0 1011.7 1011.6 0.0
11/03:30am 17.9 20.3 17.1 95 0.5 CALM 0 0 0 0 1011.6 1011.5 0.0
11/03:00am 18.9 21.6 17.8 93 0.7 CALM 0 0 0 0 1011.7 1011.6 0.0
11/02:30am 18.9 21.6 17.8 93 0.7 CALM 0 0 0 0 1011.9 1011.8 0.0
11/02:00am 19.3 22.1 18.0 92 0.8 CALM 0 0 0 0 1012.1 1012.0 0.0
11/01:30am 19.4 22.2 17.9 91 0.9 CALM 0 0 0 0 1012.4 1012.3 0.0
11/01:00am 19.2 20.8 17.9 92 0.8 NW 6 7 3 4 1012.6 1012.5 0.0
11/12:30am 19.6 22.2 17.6 88 1.2 CALM 0 7 0 4 1012.9 1012.8 0.0
11/12:00am 20.0 22.8 17.9 88 1.3 CALM 0 0 0 0 1013.2 1013.1 0.0
 
Date/Time
EST
Tmp

°C
App
Tmp
°C
Dew
Point
°C
Rel
Hum
%
Delta-T

°C
Wind Press
QNH
hPa
Press
MSL
hPa
Rain
since
9 am
mm
Dir
 
Spd
km/h
Gust
km/h
Spd
kts
Gust
kts
10/11:30pm 19.8 21.2 17.7 88 1.3 SSE 7 7 4 4 1013.4 1013.3 0.0
10/11:00pm 21.2 22.0 18.1 82 1.9 SSW 11 11 6 6 1013.6 1013.5 0.0
10/10:30pm 21.8 23.6 18.4 81 2.1 ESE 6 7 3 4 1013.7 1013.6 0.0
10/10:00pm 22.1 25.0 18.3 79 2.4 CALM 0 0 0 0 1013.7 1013.6 0.0
10/09:30pm 22.6 24.2 17.9 75 2.9 ESE 6 9 3 5 1013.6 1013.5 0.0
10/09:00pm 22.9 23.7 18.1 74 3.0 E 11 19 6 10 1013.7 1013.6 0.0
10/08:30pm 23.3 23.6 17.9 71 3.4 E 13 17 7 9 1013.4 1013.3 0.0
10/08:00pm 23.7 22.2 17.8 69 3.7 E 22 32 12 17 1013.2 1013.1 0.0
10/07:30pm 24.2 24.7 18.3 69 3.7 E 13 19 7 10 1012.7 1012.6 0.0
10/07:00pm 24.6 23.8 18.4 68 3.9 E 20 28 11 15 1012.4 1012.3 0.0
10/06:30pm 25.3 23.8 18.5 66 4.3 ENE 24 35 13 19 1012.0 1011.9 0.0
10/06:00pm 25.8 24.1 18.9 65 4.4 ENE 26 35 14 19 1011.5 1011.4 0.0
10/05:30pm 27.1 24.9 18.7 60 5.4 ENE 28 37 15 20 1011.0 1010.9 0.0
10/05:00pm 27.5 24.9 17.9 55 6.1 ENE 28 35 15 19 1010.5 1010.4 0.0
10/04:30pm 31.0 29.1 15.7 39 9.5 ESE 20 30 11 16 1010.0 1009.9 0.0
10/04:00pm 29.4 27.7 14.8 41 8.9 SE 17 24 9 13 1010.0 1009.9 0.0
10/03:30pm 30.9 29.8 15.2 38 9.7 SE 15 32 8 17 1010.2 1010.1 0.0
10/03:00pm 30.2 28.0 14.4 38 9.6 ESE 19 30 10 16 1010.4 1010.3 0.0
10/02:30pm 30.4 28.3 15.3 40 9.3 SE 20 30 11 16 1010.7 1010.6 0.0
10/02:00pm 30.1 28.8 15.9 42 8.8 SE 17 26 9 14 1011.1 1011.0 0.0
10/01:30pm 29.8 28.5 14.9 40 9.1 ESE 15 22 8 12 1011.5 1011.4 0.0
10/01:00pm 29.3 29.0 15.5 43 8.5 SE 11 22 6 12 1011.9 1011.8 0.0
10/12:30pm 29.4 28.3 15.2 42 8.7 SSE 15 24 8 13 1012.0 1011.9 0.0
10/12:00pm 28.9 27.2 14.7 42 8.6 SE 17 28 9 15 1012.3 1012.2 0.0
10/11:30am 28.5 26.7 15.4 45 8.0 ESE 19 28 10 15 1012.5 1012.4 0.0
10/11:00am 28.9 26.6 15.6 44 8.2 ESE 22 33 12 18 1012.8 1012.7 0.0
10/10:30am 27.6 25.7 15.1 46 7.6 SSE 19 26 10 14 1013.2 1013.1 0.0
10/10:00am 28.6 26.3 15.8 45 7.9 SSE 22 33 12 18 1013.4 1013.3 0.0
10/09:30am 27.0 25.7 15.7 50 6.9 S 17 26 9 14 1013.7 1013.6 0.0
10/09:00am 26.7 24.7 15.5 50 6.8 SSE 20 32 11 17 1013.9 1013.8 0.0
10/08:30am 25.3 23.9 16.5 58 5.4 S 19 28 10 15 1014.1 1014.0 0.0
10/08:00am 23.9 23.3 16.6 63 4.5 S 15 20 8 11 1014.1 1014.0 0.0
10/07:30am 22.7 22.9 16.8 69 3.6 SSW 11 15 6 8 1014.0 1013.9 0.0
10/07:00am 21.1 23.0 16.8 76 2.6 S 2 6 1 3 1013.5 1013.4 0.0
10/06:30am 20.1 20.3 16.8 81 2.0 SSW 11 15 6 8 1013.3 1013.2 0.0
10/06:00am 17.8 18.1 15.9 89 1.1 SSW 9 9 5 5 1013.0 1012.9 0.0
10/05:30am 17.6 19.6 15.9 90 1.0 CALM 0 0 0 0 1012.9 1012.8 0.0
10/05:00am 18.1 20.1 16.1 88 1.2 CALM 0 0 0 0 1012.9 1012.8 0.0
10/04:30am 17.9 20.0 16.2 90 1.0 CALM 0 0 0 0 1012.8 1012.7 0.0
10/04:00am 17.6 19.6 15.9 90 1.0 CALM 0 6 0 3 1012.7 1012.6 0.0
10/03:30am 18.2 19.4 15.8 86 1.4 SSW 4 7 2 4 1012.6 1012.5 0.0
10/03:00am 17.9 19.6 15.3 85 1.5 CALM 0 0 0 0 1012.8 1012.7 0.0
10/02:30am 18.0 19.9 15.8 87 1.3 CALM 0 0 0 0 1012.8 1012.7 0.0
10/02:00am 18.3 20.4 16.3 88 1.2 CALM 0 0 0 0 1013.1 1013.0 0.0
10/01:30am 18.6 19.7 15.5 82 1.8 SSW 4 7 2 4 1013.3 1013.2 0.0
10/01:00am 17.2 18.9 15.1 87 1.2 CALM 0 0 0 0 1013.5 1013.4 0.0
10/12:30am 17.2 17.8 14.2 82 1.7 SSW 4 9 2 5 1013.8 1013.7 0.0
10/12:00am 16.9 17.2 14.5 86 1.4 SSW 6 11 3 6 1014.3 1014.2 0.0
 
Date/Time
EST
Tmp

°C
App
Tmp
°C
Dew
Point
°C
Rel
Hum
%
Delta-T

°C
Wind Press
QNH
hPa
Press
MSL
hPa
Rain
since
9 am
mm
Dir
 
Spd
km/h
Gust
km/h
Spd
kts
Gust
kts
09/11:30pm 17.7 17.8 14.4 81 1.9 SSW 7 7 4 4 1014.5 1014.4 0.0
09/11:00pm 18.6 18.8 14.8 78 2.2 SSW 7 9 4 5 1015.1 1015.0 0.0
09/10:30pm 20.1 19.7 14.2 69 3.4 SSW 9 11 5 6 1015.4 1015.3 0.0
09/10:00pm 20.1 20.2 14.4 69 3.3 SE 7 7 4 4 1015.7 1015.6 0.0
09/09:30pm 21.2 20.9 14.3 64 4.0 SE 9 11 5 6 1016.0 1015.9 0.0
09/09:00pm 22.5 21.1 13.3 56 5.3 ESE 13 15 7 8 1015.9 1015.8 0.0
09/08:30pm 22.7 21.3 13.4 55 5.4 SE 13 15 7 8 1015.7 1015.6 0.0
09/08:00pm 23.1 21.6 13.0 53 5.8 SSE 13 15 7 8 1015.5 1015.4 0.0
09/07:30pm 24.1 21.6 12.2 47 6.8 SSE 17 22 9 12 1015.2 1015.1 0.0
09/07:00pm 25.2 21.5 11.4 42 7.8 SSE 22 32 12 17 1014.7 1014.6 0.0
09/06:30pm 26.1 21.0 10.6 37 8.7 SSE 28 37 15 20 1014.3 1014.2 0.0
09/06:00pm 27.1 22.0 12.0 39 8.7 SE 30 37 16 20 1013.8 1013.7 0.0
09/05:30pm 28.3 23.4 12.6 38 9.2 SE 30 41 16 22 1013.5 1013.4 0.0
09/05:00pm 28.8 24.5 13.1 38 9.3 SE 28 37 15 20 1013.1 1013.0 0.0
09/04:30pm 29.2 24.7 12.7 36 9.7 SSE 28 35 15 19 1013.0 1012.9 0.0
09/04:04pm 30.3 26.6 14.9 39 9.4 SE 28 46 15 25 1012.9 1012.8 0.0
09/04:00pm 30.1 26.3 14.7 39 9.4 SSE 28 33 15 18 1012.8 1012.7 0.0
09/03:30pm 28.9 24.6 14.5 41 8.7 SSE 30 39 16 21 1012.9 1012.8 0.0
09/03:00pm 30.5 27.0 13.5 35 10.2 SE 24 33 13 18 1012.8 1012.7 0.0
09/02:30pm 29.4 25.8 14.3 39 9.1 SSE 26 39 14 21 1013.0 1012.9 0.0
09/02:00pm 29.8 26.4 13.6 37 9.7 SSE 24 33 13 18 1013.1 1013.0 0.0
09/01:30pm 28.9 26.2 15.6 44 8.2 S 24 35 13 19 1013.5 1013.4 0.0
09/01:00pm 31.1 28.9 16.0 40 9.4 S 22 32 12 17 1013.7 1013.6 0.0
09/12:30pm 29.3 26.1 14.2 39 9.1 SSE 24 35 13 19 1013.9 1013.8 0.0
09/12:00pm 29.3 25.8 13.3 37 9.5 SSE 24 37 13 20 1014.3 1014.2 0.0
09/11:30am 29.1 26.0 14.6 41 8.8 ESE 24 32 13 17 1014.6 1014.5 0.0
09/11:00am 28.9 26.6 15.6 44 8.2 ESE 22 33 12 18 1015.0 1014.9 0.0
09/10:30am 27.2 24.8 14.5 45 7.6 SSE 20 32 11 17 1015.4 1015.3 0.0
09/10:00am 28.1 24.5 15.3 45 7.8 SE 28 39 15 21 1015.6 1015.5 0.0
09/09:30am 28.0 25.7 15.6 46 7.6 SE 22 32 12 17 1015.7 1015.6 0.0
09/09:00am 27.4 26.6 17.0 53 6.5 SE 17 24 9 13 1015.6 1015.5 0.0
09/08:30am 24.9 25.7 17.2 62 4.8 ESE 9 13 5 7 1015.7 1015.6 0.0
09/08:00am 24.5 24.8 17.1 63 4.6 S 11 15 6 8 1015.8 1015.7 0.0
09/07:30am 24.0 25.4 17.8 68 3.9 SSE 7 9 4 5 1015.6 1015.5 0.0
09/07:00am 21.9 24.6 17.7 77 2.6 CALM 0 6 0 3 1015.5 1015.4 0.0
09/06:30am 20.1 22.8 17.8 86 1.4 CALM 0 0 0 0 1015.2 1015.1 0.0
09/06:00am 17.0 19.1 16.2 95 0.5 CALM 0 0 0 0 1014.9 1014.8 0.0
09/05:30am 17.0 18.9 15.8 93 0.7 CALM 0 0 0 0 1014.4 1014.3 0.0
09/05:00am 17.5 19.6 16.2 92 0.8 CALM 0 0 0 0 1014.1 1014.0 0.0
09/04:30am 17.9 18.6 16.0 89 1.1 SSE 7 7 4 4 1013.8 1013.7 0.0
09/04:00am 19.4 19.5 16.4 83 1.8 SSW 11 15 6 8 1013.5 1013.4 0.0
09/03:30am 18.7 18.7 16.2 85 1.5 SSW 11 11 6 6 1013.5 1013.4 0.0
09/03:00am 19.1 19.9 16.3 84 1.7 SSW 7 7 4 4 1013.6 1013.5 0.0
09/02:30am 18.1 18.9 16.3 89 1.1 SSW 7 9 4 5 1013.8 1013.7 0.0
09/02:00am 20.1 19.7 16.3 79 2.3 SSW 13 15 7 8 1013.9 1013.8 0.0
09/01:30am 20.4 20.1 16.4 78 2.4 SSW 13 15 7 8 1014.0 1013.9 0.0
09/01:00am 20.2 20.3 16.4 79 2.3 SSW 11 15 6 8 1014.3 1014.2 0.0
09/12:30am 20.0 20.6 16.7 81 2.0 S 9 11 5 6 1014.7 1014.6 0.0
09/12:00am 20.6 20.8 16.8 79 2.3 SSW 11 15 6 8 1014.9 1014.8 0.0
 
Date/Time
EST
Tmp

°C
App
Tmp
°C
Dew
Point
°C
Rel
Hum
%
Delta-T

°C
Wind Press
QNH
hPa
Press
MSL
hPa
Rain
since
9 am
mm
Dir
 
Spd
km/h
Gust
km/h
Spd
kts
Gust
kts
08/11:30pm 21.6 21.4 16.8 74 2.9 SSW 13 15 7 8 1015.2 1015.1 0.0
08/11:00pm 21.3 22.0 17.0 76 2.6 SW 9 11 5 6 1015.4 1015.3 0.0
08/10:30pm 21.9 22.5 16.8 73 3.1 SW 9 15 5 8 1015.6 1015.5 0.0
08/10:00pm 22.9 23.0 16.5 67 3.9 ESE 11 13 6 7 1015.5 1015.4 0.0
08/09:30pm 22.6 22.0 16.7 69 3.6 ESE 15 19 8 10 1015.3 1015.2 0.0
08/09:00pm 22.8 24.6 18.7 77 2.6 ESE 7 9 4 5 1015.3 1015.2 0.0
08/08:30pm 23.3 24.2 18.5 74 3.0 E 11 13 6 7 1014.9 1014.8 0.0
08/08:00pm 24.0 24.6 18.6 72 3.4 ESE 13 15 7 8 1014.4 1014.3 0.0
08/07:30pm 24.8 24.3 15.9 57 5.4 ESE 13 19 7 10 1014.0 1013.9 0.0
08/07:00pm 25.9 24.8 14.3 48 6.9 ESE 13 13 7 7 1013.5 1013.4 0.0
08/06:30pm 27.2 25.7 14.1 44 7.8 SE 15 17 8 9 1012.9 1012.8 0.0
08/06:00pm 28.3 25.7 13.7 40 8.7 SE 20 28 11 15 1012.3 1012.2 0.0
08/05:30pm 29.0 27.1 14.2 40 8.9 SE 17 28 9 15 1012.0 1011.9 0.0
08/05:00pm 29.4 27.3 14.6 40 9.0 SE 19 26 10 14 1011.9 1011.8 0.0
08/04:30pm 30.2 28.5 14.6 38 9.5 SSE 17 24 9 13 1011.8 1011.7 0.0
08/04:00pm 29.7 27.3 13.9 38 9.5 SE 19 30 10 16 1012.0 1011.9 0.0
08/03:30pm 30.2 26.8 13.7 36 9.9 SSE 24 33 13 18 1012.1 1012.0 0.0
08/03:00pm 29.5 26.1 12.5 35 10.0 SSE 22 32 12 17 1012.3 1012.2 0.0
08/02:30pm 30.5 27.2 12.8 33 10.5 SSW 22 33 12 18 1012.4 1012.3 0.0
08/02:00pm 29.7 27.7 13.9 38 9.5 SSE 17 24 9 13 1012.7 1012.6 0.0
08/01:30pm 29.7 27.4 14.1 38 9.4 SSE 19 28 10 15 1013.1 1013.0 0.0
08/01:00pm 28.8 27.1 14.6 42 8.6 SSE 17 26 9 14 1013.3 1013.2 0.0
08/12:30pm 29.5 28.6 15.9 43 8.4 SSE 15 24 8 13 1013.8 1013.7 0.0
08/12:00pm 28.7 27.2 15.3 44 8.2 SSE 17 22 9 12 1014.0 1013.9 0.0
08/11:30am 27.4 25.9 15.2 47 7.4 SSE 17 24 9 13 1014.5 1014.4 0.0
08/11:00am 27.7 26.6 15.2 46 7.6 S 15 22 8 12 1014.9 1014.8 0.0
08/10:30am 27.4 26.3 15.2 47 7.4 SSE 15 26 8 14 1015.3 1015.2 0.0
08/10:00am 26.4 25.5 14.9 49 6.9 S 13 28 7 15 1015.6 1015.5 0.0
08/09:30am 26.1 25.0 14.4 48 7.0 S 13 22 7 12 1015.7 1015.6 0.0
08/09:00am 25.6 24.7 15.9 55 5.9 SSE 15 22 8 12 1015.9 1015.8 0.0
08/08:30am 24.6 23.1 16.3 60 5.1 S 19 24 10 13 1016.0 1015.9 0.0
08/08:00am 23.6 23.4 17.7 69 3.7 SSE 15 22 8 12 1015.9 1015.8 0.0
08/07:30am 21.5 22.4 17.6 78 2.4 SSW 9 13 5 7 1015.9 1015.8 0.0
08/07:00am 19.3 22.0 17.7 90 1.0 CALM 0 0 0 0 1015.6 1015.5 0.0
08/06:30am 17.7 20.1 16.9 95 0.5 CALM 0 0 0 0 1015.5 1015.4 0.0
08/06:00am 16.5 18.4 15.8 96 0.4 CALM 0 0 0 0 1015.0 1014.9 0.0

Latest Capital City Observations: Canberra | Sydney | Melbourne | Brisbane | Adelaide | Perth | Hobart | Darwin

Other Formats:

Comma delimited format used in spreadsheet applications
http://www.bom.gov.au/fwo/IDQ60901/IDQ60901.94568.axf

JavaScript Object Notation format (JSON) in row-major order
http://www.bom.gov.au/fwo/IDQ60901/IDQ60901.94568.json